Home   Weather   Hampton   Past weeks

Flag for USA Past Weather in Hampton, Virginia, USA — Yesterday and Last 2 Weeks

Now
78 °F

Scattered clouds.


Feels Like: 79 °F
Forecast: 61 / 77 °F
Wind: 17 mph from West

Location: Langley Air Force Base

Current Time: May 26, 2017 at 5:06:47 pm

Latest Report: May 26, 2017 at 3:58 pm


Visibility: 10 mi

Pressure: 29.81 "Hg

Humidity: 51%

Dew Point: 58 °F

Location of HamptonLocation

Past Weather in Hampton — Graph

°F

Hampton Temperature Yesterday

Maximum temperature yesterday: 79 °F (at 3:58 pm)
Minimum temperature yesterday: 61 °F (at 12:37 am)
Average temperature yesterday: 68 °F

High & Low Weather Summary for the Past Weeks

 TemperatureHumidityPressure
High92 °F (May 17, 3:58 pm)100% (May 11, 7:35 pm)30.30 "Hg (May 11, 7:35 pm)
Low48 °F (May 14, 3:58 am)28% (May 15, 4:58 pm)29.47 "Hg (May 25, 3:58 pm)
Average65 °F82%29.91 "Hg
* Reported May 11 2:58 pm — May 26 2:58 pm, Hampton. Weather by CustomWeather, © 2017

Note: Actual official high and low records may vary slightly from our data, if they occured in-between our weather recording intervals... More about our weather records

Advertising

Hampton Weather History for the Previous 24 Hours

Scroll right to see more
 ConditionsComfort  
Time TempWeatherWind HumidityBarometerVisibility
2:58 pm
Fri, May 26
79 °FPassing clouds.15 mph51%29.81 "Hg10 mi
2:42 pm79 °FScattered clouds.18 mph48%29.81 "Hg10 mi
1:58 pm77 °FScattered clouds.13 mph52%29.82 "Hg10 mi
12:58 pm76 °FScattered clouds.17 mph53%29.82 "Hg10 mi
10:58 am74 °FSunny.16 mph61%29.81 "Hg10 mi
9:58 am71 °FSunny.18 mph65%29.80 "Hg10 mi
8:58 am68 °FSunny.16 mph69%29.79 "Hg10 mi
7:58 am66 °FPassing clouds.18 mph73%29.78 "Hg10 mi
6:58 am64 °FPartly sunny.14 mph76%29.76 "Hg10 mi
5:58 am61 °FSunny.14 mph82%29.74 "Hg10 mi
4:58 am62 °FClear.13 mph79%29.71 "Hg10 mi
3:58 am62 °FClear.12 mph79%29.69 "Hg10 mi
2:58 am63 °FClear.12 mph77%29.68 "Hg10 mi
1:58 am63 °FClear.15 mph77%29.66 "Hg10 mi
12:58 am63 °FClear.9 mph76%29.65 "Hg10 mi
11:58 pm
Thu, May 25
64 °FClear.13 mph73%29.63 "Hg10 mi
10:58 pm64 °FClear.15 mph75%29.62 "Hg10 mi
9:58 pm64 °FClear.13 mph72%29.58 "Hg10 mi
8:58 pm65 °FClear.13 mph72%29.57 "Hg10 mi
7:58 pm65 °FScattered clouds.13 mph74%29.56 "Hg10 mi
6:58 pm65 °FPassing clouds.7 mph73%29.54 "Hg10 mi
6:22 pm63 °FPassing clouds.9 mph83%29.53 "Hg10 mi
5:58 pm64 °FLight rain. Scattered clouds.14 mph78%29.53 "Hg10 mi
5:33 pm70 °FLight rain. Partly sunny.22 mph60%29.52 "Hg10 mi
Weather by CustomWeather, © 2017

See weather overviewHow to use our weather pages